Satellite-Ground Cal/Val Region Overpasses Predictions

Prediction of Satellite NPP Overpassing Cal/Val Region: PacNW

Region Location: (Latitude: 10.00, Longitude: 139.50) to (Latitude: 22.70, Longitude: 165.60).

Table of predicted overpasses for the next 14.0 days since TLE Epoch: 1/8/2018
Interval Starting Time Starting Location Ending Time Ending Location
1 01/08/2018 15:17:42 ( 22.66, 155.47) 01/08/2018 15:21:17 ( 10.04, 152.47)
2 01/09/2018 02:26:47 ( 10.05, 162.99) 01/09/2018 02:30:22 ( 22.67, 159.99)
3 01/09/2018 14:58:40 ( 22.66, 160.23) 01/09/2018 15:02:15 ( 10.04, 157.23)
4 01/10/2018 02:10:21 ( 19.27, 165.59) 01/10/2018 02:11:19 ( 22.67, 164.75)
5 01/10/2018 03:49:14 ( 10.06, 142.38) 01/10/2018 03:52:40 ( 22.15, 139.51)
6 01/10/2018 14:39:37 ( 22.66, 164.99) 01/10/2018 14:43:12 ( 10.04, 161.99)
7 01/10/2018 16:21:07 ( 22.66, 139.61) 01/10/2018 16:21:14 ( 22.24, 139.51)
8 01/11/2018 03:30:12 ( 10.06, 147.14) 01/11/2018 03:33:47 ( 22.68, 144.13)
9 01/11/2018 16:02:05 ( 22.66, 144.37) 01/11/2018 16:05:40 ( 10.04, 141.37)
10 01/12/2018 03:11:09 ( 10.06, 151.90) 01/12/2018 03:14:44 ( 22.68, 148.89)
11 01/12/2018 15:43:02 ( 22.66, 149.13) 01/12/2018 15:46:37 ( 10.04, 146.13)
12 01/13/2018 02:52:07 ( 10.06, 156.65) 01/13/2018 02:55:42 ( 22.68, 153.65)
13 01/13/2018 15:24:00 ( 22.66, 153.89) 01/13/2018 15:27:35 ( 10.04, 150.89)
14 01/14/2018 02:33:04 ( 10.06, 161.41) 01/14/2018 02:36:39 ( 22.68, 158.41)
15 01/14/2018 15:04:57 ( 22.66, 158.65) 01/14/2018 15:08:32 ( 10.04, 155.65)
16 01/15/2018 02:14:45 ( 12.58, 165.59) 01/15/2018 02:17:37 ( 22.68, 163.17)
17 01/15/2018 03:55:31 ( 10.01, 140.81) 01/15/2018 03:57:07 ( 15.65, 139.50)
18 01/15/2018 14:45:55 ( 22.66, 163.41) 01/15/2018 14:49:30 ( 10.04, 160.41)
19 01/16/2018 03:36:28 ( 10.01, 145.57) 01/16/2018 03:40:04 ( 22.69, 142.56)
20 01/16/2018 14:29:55 ( 11.91, 165.60) 01/16/2018 14:30:27 ( 10.03, 165.17)
21 01/16/2018 16:08:22 ( 22.65, 142.79) 01/16/2018 16:11:57 ( 10.03, 139.79)
22 01/17/2018 03:17:26 ( 10.01, 150.33) 01/17/2018 03:21:02 ( 22.69, 147.31)
23 01/17/2018 15:49:20 ( 22.65, 147.55) 01/17/2018 15:52:55 ( 10.02, 144.55)
24 01/18/2018 02:58:24 ( 10.01, 155.09) 01/18/2018 03:02:00 ( 22.69, 152.07)
25 01/18/2018 15:30:17 ( 22.64, 152.31) 01/18/2018 15:33:52 ( 10.02, 149.31)
26 01/19/2018 02:39:21 ( 10.01, 159.85) 01/19/2018 02:42:57 ( 22.69, 156.83)
27 01/19/2018 15:11:15 ( 22.64, 157.07) 01/19/2018 15:14:50 ( 10.02, 154.07)
28 01/20/2018 02:20:19 ( 10.02, 164.61) 01/20/2018 02:23:55 ( 22.70, 161.59)
29 01/20/2018 14:52:11 ( 22.70, 161.84) 01/20/2018 14:55:47 ( 10.02, 158.83)
30 01/21/2018 03:42:46 ( 10.03, 143.99) 01/21/2018 03:46:21 ( 22.65, 140.99)
31 01/21/2018 14:34:19 ( 18.59, 165.59) 01/21/2018 14:36:45 ( 10.02, 163.59)
32 01/21/2018 16:14:39 ( 22.69, 141.22) 01/21/2018 16:16:40 ( 15.59, 139.50)


NCC Satellite Cal/Val Overpasses Prediction Service
